Wind_Speed
7 7 6 6 6 5 4 5 5 5 7 8 10 12 13 13 12 12 10 9 9 9 9 9 9 10 10 11 11 12 12 12 12 14 13 13 14 13 13 13 13 13 14 13 14 13 13 13 12
8 7 7 6 6 5 5 6 7 8 9 10 10 12 13 13 13 13 12 11 10 9 10 10 10 11 11 11 12 12 13 13 13 14 15 15 15 15 15 14 15 15 15 15 15 14 14 14 13
8 8 8 7 8 6 6 7 9 11 11 11 11 12 13 13 14 13 13 12 11 10 10 11 11 12 13 13 13 13 14 14 14 15 16 16 16 17 16 16 16 16 16 16 16 16 15 15 14
9 9 9 9 8 6 7 8 10 10 12 13 14 14 14 14 14 14 14 13 12 11 12 13 13 14 14 14 14 14 14 15 15 15 16 17 17 17 17 17 16 16 16 16 17 17 16 16 16
9 10 10 10 9 8 9 9 10 11 13 14 15 16 15 14 14 13 13 13 12 12 12 13 13 14 15 15 14 15 15 15 16 16 17 18 17 18 18 17 17 17 17 17 18 18 18 18 17
10 10 10 10 10 9 9 10 11 13 15 15 17 17 16 15 14 13 14 13 12 13 13 13 13 14 15 15 14 14 14 15 16 17 18 18 18 18 18 18 17 18 18 18 19 19 19 19 19
11 11 11 11 10 10 10 10 11 13 15 16 17 18 17 16 15 15 14 13 14 13 13 14 15 15 15 16 16 17 17 17 17 18 18 18 18 18 18 18 18 18 19 20 20 20 20 21 20
12 11 11 10 9 9 10 11 12 14 16 15 16 16 16 16 16 15 15 15 14 13 14 15 16 16 15 16 16 17 17 18 18 19 19 19 19 19 18 18 19 19 19 19 20 20 21 22 22
12 11 11 9 7 8 9 11 13 15 15 14 15 16 16 17 15 15 16 16 15 14 14 14 15 16 16 17 17 16 17 18 19 19 20 20 20 19 19 19 19 19 19 19 20 20 21 22 22
12 11 10 9 9 8 9 12 14 15 15 16 16 17 17 16 15 15 16 15 15 14 14 14 15 16 16 17 17 17 18 18 19 19 19 19 19 19 19 20 20 20 19 19 20 20 20 21 21
12 10 10 10 9 9 9 11 14 15 16 16 16 17 17 15 15 15 15 14 14 14 14 14 16 16 17 17 18 18 18 18 18 19 19 19 19 19 18 19 20 19 19 19 19 19 20 20 21
12 11 11 10 8 8 10 10 13 15 15 15 16 17 17 15 15 15 14 13 13 14 15 15 15 16 17 18 19 18 18 18 18 18 18 18 19 19 19 19 19 19 19 18 18 19 19 20 21
12 11 11 10 9 8 10 10 12 15 15 15 16 17 16 16 16 14 13 14 15 16 15 15 15 16 17 19 19 17 17 17 17 17 18 19 19 19 19 20 19 19 19 19 19 19 19 20 21
11 11 11 11 10 9 10 10 12 14 14 16 17 16 16 16 15 14 13 13 14 15 15 15 15 17 18 17 16 17 18 18 18 18 19 19 19 19 19 18 18 18 19 20 20 19 19 20 20
11 11 11 10 10 9 10 10 11 14 15 15 14 15 15 15 15 14 13 13 15 15 15 16 17 18 16 17 17 17 17 18 19 19 20 20 20 20 19 18 17 18 18 19 19 20 20 20 21
11 10 9 8 8 8 10 10 11 13 15 14 14 14 15 15 15 15 14 14 15 15 16 16 17 17 16 16 16 16 17 18 18 18 20 20 19 20 19 18 18 19 20 20 20 20 20 20 21
9 8 7 7 8 9 9 10 10 12 14 14 13 14 14 15 15 14 15 14 15 15 16 16 17 17 17 17 17 17 17 17 17 18 18 18 18 18 18 19 19 19 20 20 20 20 20 20 20
7 7 8 7 9 9 9 10 10 11 12 14 14 13 13 14 14 14 14 14 15 15 15 16 16 16 16 17 18 18 17 17 17 17 16 16 16 16 17 18 18 19 19 20 20 19 19 20 20
7 8 9 8 9 9 9 10 10 11 13 13 14 13 12 12 14 13 13 14 15 15 15 15 15 15 16 17 18 17 16 16 16 16 15 14 14 15 16 17 17 18 19 19 19 19 19 19 19
7 7 8 8 9 10 10 11 10 12 13 12 13 13 12 12 13 14 13 14 15 15 16 16 16 15 15 15 16 16 15 15 16 15 14 13 13 14 16 18 18 18 19 19 18 18 19 20 20
7 7 8 9 9 10 12 10 9 9 10 11 11 11 11 12 13 14 14 14 15 15 15 15 16 17 16 16 16 16 16 15 15 14 14 13 13 14 15 17 16 17 18 17 17 18 19 19 20
7 7 9 10 10 11 10 11 9 9 8 8 9 10 11 12 13 13 13 14 14 15 15 15 15 15 16 16 16 16 16 16 15 14 13 13 13 14 15 15 16 16 17 17 17 18 18 19 19
8 8 9 10 11 11 10 10 8 8 7 8 9 11 12 12 13 13 13 14 14 14 15 14 15 15 15 15 16 15 15 14 14 13 13 13 14 14 15 15 14 14 15 16 17 17 18 19 19
8 8 10 11 11 10 8 9 8 8 8 9 11 12 12 12 13 13 13 13 14 13 13 13 14 14 14 15 15 14 15 14 14 13 13 13 13 14 14 14 13 13 14 15 16 18 19 20 20
10 10 10 11 10 9 8 9 8 8 9 10 11 12 13 12 13 13 13 13 13 12 12 13 14 15 15 15 15 15 14 14 14 13 13 14 14 13 13 12 13 13 14 15 16 18 19 19 20
10 10 10 11 11 10 10 10 9 9 10 10 11 12 13 13 12 12 12 13 12 12 12 14 14 15 16 16 16 15 14 14 13 13 13 13 13 13 13 13 13 14 14 15 16 18 18 19 20
11 10 11 12 12 11 10 10 11 10 11 11 11 12 13 13 12 12 12 12 11 12 13 14 14 16 16 16 16 16 14 13 13 13 14 14 14 14 14 13 14 15 16 17 17 18 19 19 19
12 12 11 12 13 12 12 13 12 11 12 12 11 12 12 12 12 12 12 12 12 13 13 14 14 15 16 16 16 16 15 14 13 14 14 15 15 14 14 14 15 16 17 18 19 19 20 20 20
12 13 14 15 15 15 14 13 13 13 12 12 12 12 13 13 13 13 13 12 13 14 14 14 14 15 16 16 16 16 15 15 15 15 15 15 15 15 14 16 17 18 18 19 20 20 20 20 21
13 14 15 15 16 15 16 14 14 13 14 13 13 13 14 14 13 14 14 14 14 15 15 14 14 15 15 16 16 16 17 16 16 16 15 15 15 15 15 16 17 18 19 20 20 20 20 20 21
Wind_Direction
216 215 221 224 229 230 242 268 291 300 295 288 295 298 303 308 308 298 293 293 293 297 298 296 295 296 294 288 284 281 279 279 276 275 275 275 276 275 276 276 275 276 276 275 273 272 271 270 267
216 216 222 224 227 235 248 268 281 293 293 297 301 300 301 305 305 302 296 298 289 290 295 294 294 293 292 289 284 280 277 277 276 274 275 274 275 276 276 276 275 276 275 274 272 269 267 266 265
218 218 220 223 225 236 251 268 281 294 298 304 304 302 302 305 304 301 299 298 291 290 292 293 299 297 293 290 287 281 278 276 278 277 275 274 276 276 275 275 276 276 275 274 273 270 267 266 264
219 218 220 223 225 237 252 271 284 293 299 303 304 303 303 305 305 301 300 298 296 288 286 290 294 294 293 290 286 282 279 276 277 277 275 276 277 277 277 276 275 275 273 273 272 271 269 266 263
220 222 221 223 229 243 254 271 289 296 299 305 305 304 304 304 302 298 299 294 290 285 283 288 291 292 291 289 285 281 279 277 276 278 278 277 277 278 278 276 276 275 272 271 271 271 269 267 265
219 222 223 225 232 241 253 271 284 291 295 300 303 305 305 301 301 295 297 292 290 288 285 285 287 288 287 288 287 281 279 279 279 281 282 279 276 277 277 276 276 275 274 273 271 270 269 270 268
220 224 227 229 232 243 255 269 277 284 290 294 298 302 300 302 300 299 297 291 288 287 288 284 285 286 287 287 286 285 281 281 282 282 281 279 276 275 275 276 275 274 275 273 270 270 270 269 270
220 223 228 229 241 252 260 270 282 285 288 291 297 300 299 301 299 299 298 295 291 287 290 285 285 286 289 286 285 286 285 283 282 281 281 280 278 276 274 275 275 275 275 273 269 269 271 270 268
223 227 227 233 253 261 269 279 283 286 290 294 300 304 304 300 301 303 298 294 295 291 290 292 290 291 290 290 287 288 287 283 281 281 280 280 278 276 274 275 275 275 274 272 271 270 269 268 267
218 221 229 242 266 276 276 282 285 288 293 296 300 301 300 301 301 303 299 294 294 290 293 296 294 293 293 292 287 287 287 285 283 281 281 278 276 275 274 274 274 273 272 270 269 268 267 267 268
220 222 232 243 267 276 278 282 283 289 296 298 300 301 302 304 301 300 299 296 293 292 295 294 296 293 293 294 292 288 286 286 285 282 281 279 276 273 272 274 274 272 271 269 268 265 266 267 268
220 226 236 244 257 272 276 278 282 293 298 300 303 304 301 299 296 296 298 299 297 298 296 295 296 294 294 293 293 292 289 287 284 283 280 279 277 275 273 270 272 272 270 269 271 270 267 269 270
222 231 240 245 254 265 273 280 292 298 301 302 306 303 298 302 298 299 300 300 297 297 299 298 294 293 294 293 293 292 291 289 286 284 282 279 279 277 275 271 269 268 269 271 273 268 268 269 270
224 232 241 244 254 261 269 286 301 302 302 304 306 300 299 301 304 302 297 299 299 299 300 298 297 295 295 294 294 292 290 290 289 287 283 281 279 277 275 271 272 269 267 269 271 271 271 271 271
230 236 242 249 259 271 281 292 302 301 301 305 308 307 307 308 309 309 301 300 302 301 301 298 298 297 295 294 291 291 291 291 291 289 286 283 281 279 274 272 273 273 273 271 271 272 272 273 272
236 242 245 253 269 279 280 289 296 299 305 310 311 312 315 313 311 308 305 304 306 305 303 299 299 299 298 299 297 296 295 296 295 293 288 284 282 278 275 273 274 274 273 273 274 274 273 273 272
239 245 256 268 279 274 283 292 296 301 306 310 312 313 316 313 312 309 309 310 308 306 303 299 299 301 301 301 301 300 299 301 302 298 293 288 283 278 276 275 274 274 274 275 275 273 273 274 272
235 250 258 266 277 279 286 292 297 302 305 305 310 314 316 313 314 313 310 309 307 305 304 302 302 303 301 302 305 302 301 302 303 302 297 291 283 278 276 276 275 275 275 275 276 275 274 273 273
235 263 271 271 275 284 289 288 291 295 297 299 306 312 317 313 314 313 309 310 308 306 307 308 309 306 305 305 307 304 303 303 304 303 300 295 286 278 274 276 277 277 279 278 277 277 276 276 276
237 268 279 280 280 285 287 288 293 295 299 302 307 313 321 316 312 314 313 311 312 311 312 312 312 313 315 311 310 309 306 304 306 306 301 298 291 282 277 279 280 279 279 278 277 278 278 278 279
246 273 285 292 287 289 291 294 305 300 302 307 309 314 320 314 313 316 319 314 314 312 310 314 317 317 318 318 318 315 310 307 308 305 301 301 297 291 287 288 285 281 280 278 279 281 280 280 281
259 281 287 288 287 298 307 306 314 314 308 312 316 315 311 312 313 317 322 320 317 316 313 315 316 316 318 319 320 320 315 312 310 304 302 300 298 293 289 288 286 283 282 283 283 283 282 282 284
270 277 283 285 283 285 291 301 316 311 308 313 313 313 314 315 315 320 324 323 320 318 315 315 316 315 317 320 319 319 319 318 316 311 307 302 298 293 290 288 285 284 285 288 287 288 287 286 287
259 262 271 277 278 277 287 293 309 318 316 317 313 312 315 318 325 330 326 324 321 319 318 321 319 318 318 320 324 323 320 318 317 316 312 308 305 303 298 292 288 287 287 290 291 291 292 291 290
248 258 267 268 270 275 282 288 305 320 317 314 318 316 314 316 323 329 328 324 323 321 320 320 321 320 321 321 322 322 319 317 317 316 312 309 307 303 297 296 295 294 294 295 297 298 297 295 294
250 261 267 269 268 271 278 288 301 312 313 314 317 319 320 320 322 324 329 330 327 324 324 323 322 322 322 322 321 320 316 314 314 316 314 312 310 305 300 299 300 299 301 301 302 303 302 300 298
257 260 263 269 271 276 276 289 296 305 310 312 317 320 324 327 326 325 326 328 328 326 328 329 327 324 324 325 325 323 320 317 316 317 319 316 311 306 302 302 302 301 301 301 303 304 305 306 303
254 256 260 268 273 279 284 288 294 303 306 312 314 316 321 325 326 322 322 322 324 327 328 328 329 329 329 328 327 326 320 315 312 315 317 315 312 307 301 301 305 305 305 304 304 305 305 305 305
258 261 264 268 273 278 285 290 296 299 304 307 309 311 315 317 316 316 316 317 321 323 325 326 329 331 333 333 332 330 328 321 315 314 312 311 310 306 302 301 302 305 306 304 302 304 305 306 305
259 262 266 271 273 275 280 290 296 295 300 303 304 305 310 312 311 311 312 313 317 320 321 323 328 330 331 332 332 332 330 325 318 313 310 309 310 308 305 304 304 305 306 307 307 307 306 307 307
Height
5897 5897 5898 5899 5899 5899 5898 5898 5897 5897 5897 5897 5897 5896 5896 5896 5895 5896 5893 5890 5889 5889 5889 5888 5887 5887 5887 5887 5887 5887 5886 5886 5885 5885 5884 5884 5883 5883 5883 5882 5882 5881 5881 5880 5880 5880 5879 5879 5879
5896 5896 5897 5898 5897 5897 5898 5897 5896 5896 5896 5895 5895 5894 5894 5893 5893 5892 5890 5889 5888 5887 5887 5886 5886 5885 5885 5885 5885 5884 5884 5883 5883 5882 5882 5882 5881 5881 5880 5880 5879 5879 5879 5878 5878 5877 5877 5877 5876
5894 5895 5896 5896 5896 5896 5896 5895 5895 5894 5893 5893 5893 5892 5891 5891 5890 5889 5889 5888 5886 5886 5885 5884 5884 5883 5883 5883 5882 5882 5881 5881 5881 5880 5880 5879 5879 5878 5878 5877 5877 5876 5876 5876 5875 5875 5874 5874 5874
5893 5894 5894 5895 5894 5894 5894 5893 5892 5892 5891 5891 5890 5890 5889 5889 5888 5887 5886 5885 5884 5883 5883 5883 5882 5882 5881 5881 5880 5879 5879 5878 5878 5877 5877 5877 5876 5876 5875 5874 5874 5873 5873 5873 5872 5871 5871 5871 5871
5891 5892 5892 5892 5892 5891 5891 5890 5890 5890 5889 5889 5888 5887 5886 5886 5885 5884 5883 5882 5881 5881 5881 5881 5880 5879 5879 5878 5877 5876 5876 5875 5875 5874 5874 5873 5873 5872 5872 5871 5871 5870 5870 5869 5869 5868 5868 5868 5867
5890 5890 5890 5890 5890 5889 5889 5889 5888 5888 5886 5886 5886 5884 5883 5882 5882 5882 5881 5879 5879 5879 5879 5878 5877 5876 5876 5875 5874 5873 5873 5872 5872 5871 5870 5870 5869 5868 5868 5867 5867 5867 5866 5866 5865 5865 5864 5864 5864
5888 5888 5888 5888 5888 5888 5888 5887 5886 5887 5885 5884 5883 5881 5880 5879 5879 5879 5878 5877 5876 5876 5875 5875 5874 5873 5873 5872 5871 5871 5870 5869 5868 5867 5866 5866 5865 5865 5864 5863 5863 5862 5862 5862 5861 5861 5861 5860 5860
5885 5887 5887 5886 5885 5885 5885 5885 5884 5884 5882 5881 5880 5879 5877 5876 5875 5875 5875 5874 5872 5872 5872 5872 5871 5870 5870 5869 5868 5867 5866 5865 5864 5863 5862 5862 5861 5860 5860 5859 5859 5858 5858 5857 5857 5856 5856 5856 5855
5883 5885 5884 5884 5883 5883 5883 5882 5881 5880 5879 5878 5877 5876 5875 5874 5873 5871 5871 5871 5870 5869 5869 5868 5867 5867 5867 5866 5865 5863 5862 5861 5860 5859 5858 5857 5857 5856 5855 5855 5854 5854 5853 5852 5852 5852 5851 5851 5850
5881 5881 5881 5881 5881 5881 5880 5879 5878 5877 5876 5875 5874 5874 5872 5870 5869 5868 5868 5868 5867 5866 5865 5864 5864 5863 5863 5862 5861 5859 5858 5857 5855 5854 5853 5852 5852 5851 5850 5850 5849 5849 5848 5847 5847 5847 5846 5846 5846
5878 5878 5878 5878 5879 5878 5877 5877 5875 5874 5873 5872 5871 5870 5869 5867 5866 5866 5865 5864 5863 5863 5862 5861 5860 5860 5859 5858 5856 5855 5854 5852 5851 5849 5848 5847 5846 5846 5845 5845 5844 5843 5843 5842 5842 5841 5841 5841 5841
5875 5876 5875 5876 5877 5876 5875 5874 5873 5872 5871 5870 5869 5868 5867 5865 5863 5862 5862 5861 5860 5859 5859 5858 5857 5856 5855 5853 5852 5850 5849 5847 5846 5844 5843 5842 5842 5841 5840 5840 5839 5838 5837 5837 5837 5836 5836 5836 5835
5873 5873 5873 5873 5874 5873 5873 5872 5871 5870 5868 5867 5867 5866 5865 5863 5861 5859 5859 5858 5857 5856 5855 5853 5852 5851 5850 5848 5847 5846 5844 5842 5841 5840 5839 5838 5837 5836 5835 5834 5833 5833 5832 5832 5832 5831 5830 5830 5829
5870 5870 5870 5871 5871 5871 5871 5870 5869 5867 5866 5865 5865 5864 5863 5861 5859 5857 5856 5855 5854 5853 5851 5850 5848 5846 5845 5843 5842 5841 5839 5838 5836 5834 5833 5832 5831 5830 5829 5828 5828 5827 5827 5827 5826 5825 5825 5824 5824
5867 5868 5868 5868 5868 5868 5868 5868 5867 5865 5864 5863 5862 5861 5859 5857 5856 5854 5853 5852 5851 5850 5848 5846 5844 5842 5840 5839 5837 5836 5835 5833 5831 5829 5827 5826 5825 5824 5824 5823 5823 5822 5822 5821 5820 5820 5819 5819 5818
5865 5865 5865 5866 5865 5865 5866 5865 5865 5862 5861 5860 5859 5858 5856 5855 5853 5852 5851 5849 5848 5846 5845 5843 5841 5838 5836 5834 5833 5831 5829 5827 5825 5823 5821 5820 5819 5818 5818 5818 5817 5817 5816 5815 5814 5814 5813 5813 5812
5862 5862 5862 5863 5863 5863 5863 5862 5862 5861 5859 5858 5857 5856 5854 5852 5850 5849 5847 5845 5844 5843 5842 5840 5837 5834 5832 5830 5829 5826 5824 5822 5820 5817 5815 5813 5812 5812 5812 5812 5812 5811 5811 5810 5809 5808 5807 5807 5806
5860 5860 5860 5860 5861 5860 5860 5859 5859 5859 5857 5856 5854 5853 5852 5849 5848 5846 5845 5843 5841 5840 5838 5836 5834 5831 5829 5826 5824 5821 5819 5817 5815 5812 5809 5807 5806 5807 5807 5807 5806 5805 5805 5804 5803 5802 5801 5801 5800
5858 5858 5858 5859 5858 5858 5857 5857 5856 5856 5854 5853 5851 5850 5848 5847 5845 5844 5842 5840 5838 5837 5834 5832 5829 5827 5825 5822 5820 5817 5815 5813 5810 5808 5805 5803 5802 5802 5802 5801 5800 5800 5799 5798 5797 5797 5796 5795 5794
5856 5856 5856 5857 5856 5856 5855 5854 5853 5852 5851 5850 5848 5847 5845 5844 5843 5842 5839 5837 5835 5833 5831 5829 5826 5823 5821 5818 5816 5813 5811 5809 5806 5804 5802 5800 5798 5797 5797 5796 5795 5795 5794 5793 5792 5791 5790 5789 5788
5854 5855 5855 5854 5854 5853 5852 5851 5850 5849 5848 5847 5846 5844 5843 5842 5841 5839 5836 5834 5832 5830 5828 5826 5823 5820 5818 5815 5812 5809 5807 5804 5802 5800 5798 5796 5795 5794 5792 5791 5790 5789 5789 5788 5787 5786 5785 5784 5782
5853 5853 5852 5852 5851 5851 5850 5849 5849 5847 5846 5845 5843 5842 5840 5839 5838 5836 5834 5831 5829 5827 5825 5823 5821 5818 5815 5812 5809 5806 5804 5801 5799 5796 5795 5793 5791 5790 5789 5788 5786 5785 5784 5783 5782 5781 5780 5778 5776
5850 5850 5850 5850 5849 5849 5848 5847 5847 5845 5845 5844 5842 5840 5838 5837 5835 5833 5831 5829 5827 5824 5822 5820 5818 5815 5812 5809 5806 5803 5801 5798 5795 5793 5791 5789 5788 5786 5785 5783 5782 5781 5780 5779 5777 5776 5774 5773 5771
5848 5848 5848 5847 5847 5847 5846 5845 5845 5843 5843 5842 5840 5838 5836 5834 5832 5830 5829 5827 5825 5822 5819 5817 5815 5813 5810 5807 5804 5801 5798 5795 5792 5790 5788 5786 5784 5782 5780 5779 5778 5777 5776 5775 5773 5771 5769 5767 5765
5846 5846 5845 5845 5844 5844 5844 5843 5843 5842 5840 5839 5837 5836 5834 5831 5830 5828 5826 5824 5822 5820 5817 5815 5813 5810 5807 5804 5801 5799 5795 5792 5790 5787 5785 5782 5781 5779 5777 5775 5774 5773 5772 5770 5769 5767 5764 5762 5760
5842 5843 5843 5842 5842 5842 5841 5840 5841 5840 5838 5836 5835 5833 5831 5829 5827 5825 5824 5822 5820 5818 5815 5813 5810 5807 5804 5801 5798 5796 5793 5790 5787 5785 5782 5780 5778 5775 5773 5772 5770 5769 5767 5766 5764 5762 5760 5757 5754
5841 5840 5841 5840 5839 5839 5838 5838 5838 5837 5836 5834 5832 5830 5828 5827 5825 5823 5821 5820 5818 5815 5813 5810 5808 5805 5802 5798 5795 5792 5790 5787 5784 5782 5779 5777 5774 5772 5770 5768 5766 5765 5763 5762 5760 5758 5755 5752 5749
5838 5839 5838 5837 5836 5835 5835 5835 5835 5834 5832 5830 5829 5827 5826 5824 5823 5821 5819 5817 5815 5813 5811 5808 5805 5802 5799 5796 5792 5789 5787 5784 5781 5779 5776 5773 5771 5769 5767 5765 5763 5761 5759 5757 5755 5752 5749 5747 5744
5836 5836 5835 5834 5834 5833 5832 5833 5831 5830 5829 5827 5826 5825 5823 5821 5820 5819 5817 5814 5812 5810 5808 5805 5803 5800 5797 5793 5790 5787 5784 5781 5778 5775 5773 5770 5768 5765 5763 5761 5759 5756 5754 5752 5749 5747 5744 5741 5738
5832 5832 5832 5831 5830 5829 5828 5831 5827 5826 5825 5824 5823 5822 5820 5818 5816 5815 5813 5812 5810 5808 5805 5803 5800 5798 5795 5791 5788 5784 5781 5778 5775 5772 5769 5766 5764 5762 5759 5757 5755 5752 5749 5747 5744 5742 5739 5736 5733